www.pogodaiklimat.ru

Погода и климат >> Архив погоды >> Россия >> Тюменская область >> Ялуторовск


ПОГОДА в Ялуторовске

  • Прогноз погоды в Ялуторовске
  • Монитор погоды в Ялуторовске

АРХИВ ПОГОДЫ в Ялуторовске

Время (UTC), дата Ветер
(напр.,м/с)
 
Видим.   Явления Облачность Т
(С)
Тd
(С)
f
(%)
Тe
(С)
Тes
(С)
Комфортность P
(гПа)
Po
(гПа)
Тmin
(С)
Tmax
(С)
R
(мм)
R24
(мм)
S
(см)
00 14.06 З 2 50 км 1/0
[Ci sp]
+4.8 +1.4 79 +2 +3 1010.2 1002.7
03 14.06 СЗ 4 50 км 8/0
[Ac trans Ci sp]
+9.1 +0.2 54 +7 +9 1010.1 1002.7 +4.7
06 14.06 З 4
{10}
50 км 9/6 600 м
[Cb calv Ac trans Ci fib]
+12.8 -0.0 41 +11 +14 1008.7 1001.4
09 14.06 З 4
{11}
50 км 10/10 600 м
[Cb calv]
+12.6 +0.1 42 +11 +11 1008.1 1000.8
12 14.06 С 1 50 км 10/10 600 м
[Cb calv]
+13.2 +2.5 48 +14 +14 1008.1 1000.8
15 14.06 ЮВ 1 50 км 9/8 600 м
[Cb calv Ci sp]
+12.6 +3.9 55 +13 +13 1008.3 1001.0 +13.8
18 14.06 В 1 20 км 8/5 600 м
[Cb calv Ac trans]
+7.8 +3.8 76 +7 +7 1009.2 1001.8
21 14.06 СВ 1 20 км 8/4 600 м
[Cb calv Ac trans]
+5.6 +3.1 84 +4 +4 1009.2 1001.7
00 15.06 В 1 50 км 8/3 600 м
[Sc diur, vesp Ac trans Cc]
+5.6 +2.4 80 +5 +5 1008.7 1001.2
03 15.06 В 2 50 км 6/3 1000 м
[Sc Ac cast Ci sp]
+12.3 +2.9 53 +12 +15 1008.4 1001.1 +4.6
06 15.06 В 2 50 км 8/4 600 м
[Cb calv Ac trans Ci sp]
+16.1 +3.7 44 +16 +22 1007.7 1000.4
09 15.06 В 2 50 км 8/6 600 м
[Cb calv Ci sp]
+17.1 +3.8 41 +17 +23 1006.7 999.5
12 15.06 СЗ 2 50 км 9/8 600 м
[Cb calv Ac trans]
+13.8 +6.0 59 +13 +14 1006.9 999.6
15 15.06 Ю 4 50 км {ливн. осадки} 10/3 600 м
[Cb calv Ci]
+12.7 +7.6 71 +11 +11 1006.8 999.5 +17.5 0.0
18 15.06 ЮВ 1 20 км {ливн. осадки} 6/1 600 м
[Cb calv Ac trans Ci sp]
+9.3 +6.3 82 +9 +9 1006.9 999.6
21 15.06 Ю 3 20 км ясно +5.4 +3.8 89 +2 +2 1005.7 998.2
00 16.06 Ю 2 50 км 8/3 600 м
[Cb calv Ac trans Ci sp]
+5.9 +4.9 93 +3 +4 1005.1 997.6
03 16.06 Ю 3 50 км 10/4 600 м
[Cb calv Ac trans Ci]
+10.5 +7.1 79 +9 +10 1004.3 997.0 +5.2
06 16.06 ЮЗ 5 50 км 6/3 600 м
[Cu med, cong Ci sp]
+18.1 +2.8 36 +18 +22 1003.2 996.1
09 16.06 З 5
{12}
50 км {ливн. осадки} 9/8 600 м
[Cb calv Ci sp]
+19.5 +2.0 31 +20 +21 1001.6 994.5
12 16.06 З 4
{11}
50 км {ливн. осадки} 10/10 600 м
[Cb calv]
+16.0 +6.5 53 +15 +15 1002.7 995.5
15 16.06 З 1
{10}
50 км {ливн. осадки} 10/8 600 м
[Cb calv Ac trans Ci sp]
+11.7 +7.7 76 +12 +12 1003.3 996.0 +19.8 0.3
18 16.06 З 1 20 км {ливн. осадки} 6/3 600 м
[Sc diur, vesp Ci fib]
+9.4 +6.6 83 +9 +9 1003.6 996.2
21 16.06 З 2 20 км 6/0
[Ci sp]
+7.7 +6.2 90 +6 +6 1003.4 996.0
00 17.06 СЗ 1 50 км 4/0
[Ac trans Ci sp]
+7.3 +6.1 92 +6 +7 1003.9 996.5
03 17.06 З 3 50 км 8/1 600 м
[Cb calv Ac trans Ci sp]
+10.9 +7.1 77 +9 +12 1004.6 997.2 +7.1
06 17.06 СЗ 3 50 км 8/6 600 м
[Cb calv Ac trans]
+13.1 +4.7 57 +12 +15 1004.7 997.5
09 17.06 З 4 50 км {ливн. осадки} 8/5 600 м
[Cb calv As trans Ci sp]
+15.0 +2.5 43 +14 +18 1004.3 997.1
12 17.06 СЗ 4 50 км {ливн. осадки} 8/8 600 м
[Cb calv As trans Ci sp]
+16.2 +1.3 36 +16 +17 1004.2 997.0
15 17.06 СЗ 3 50 км 6/3 600 м
[Sc diur, vesp Cc]
+14.8 +1.4 40 +14 +15 1004.5 997.3 +17.1 0.3
18 17.06 Ю 1 20 км 10/10 600 м
[Sc diur, vesp]
+10.7 +7.0 78 +10 +10 1004.5 997.2
21 17.06 Ю 2 20 км 10/10 600 м
[Sc diur, vesp]
+8.1 +5.6 84 +6 +6 1003.9 996.5
00 18.06 ЮВ 1 50 км 10/10 600 м
[Sc]
+8.0 +5.5 84 +7 +7 1003.3 995.9
03 18.06 Ю 2 50 км 8/3 600 м
[Sc Ac trans Cc]
+12.0 +6.8 70 +11 +14 1003.5 996.2 +7.5
06 18.06 З 2 50 км {ливн. осадки} 8/6 600 м
[Cb calv As trans]
+15.1 +7.4 60 +15 +19 1003.2 996.0
09 18.06 З 4 50 км {ливн. осадки} 10/10 600 м
[Cb calv]
+15.8 +7.6 58 +15 +15 1004.1 996.9
12 18.06 СЗ 5
{10}
50 км {ливн. осадки} 10/10 600 м
[Cb calv]
+14.4 +6.0 57 +13 +13 1004.9 997.7
15 18.06 ЮЗ 1 50 км {ливн. осадки} 10/10 600 м
[Cb calv]
+12.4 +8.5 77 +12 +12 1006.2 998.9 +17.4 0.3
18 18.06 З 2 20 км {ливн. осадки} 4/3 600 м
[Sc diur, vesp Ci sp]
+11.0 +7.2 77 +10 +10 1007.2 999.8
21 18.06 З 2 20 км 3/0
[Ci sp]
+7.9 +4.6 80 +6 +6 1007.6 1000.2
00 19.06 Ю 3 50 км 10/0
[Ac As]
+5.6 +4.2 91 +2 +2 1008.0 1000.5
03 19.06 З 3 50 км 8/0
[Ac As Ci sp]
+12.9 +6.8 66 +12 +15 1008.2 1000.9 +4.6
06 19.06 З 3 50 км 9/8 600 м
[Cb calv Ci ing]
+18.0 +7.1 49 +18 +20 1008.5 1001.4
09 19.06 З 3 50 км 10/3 600 м
[Sc Ac As]
+18.8 +7.3 47 +19 +22 1009.0 1001.9
12 19.06 З 3 50 км 10/10 600 м
[Cb calv]
+20.6 +6.1 39 +22 +22 комфорт 1008.8 1001.7
15 19.06 Ю 2 50 км 9/8 600 м
[Cb calv Ci sp]
+19.0 +10.4 57 +20 +20 1008.8 1001.6 +21.3
18 19.06 ЮЗ 4 20 км {ливн. осадки} 10/10 600 м
[Cb calv]
+18.9 +6.0 43 +19 +19 1009.6 1002.4
21 19.06 Ю 3 20 км 9/9 600 м
[Cb calv]
+13.8 +8.9 72 +13 +13 1009.7 1002.4
00 20.06 Ю 3 50 км в посл. час ливневой дождь 9/8 600 м
[Cb calv Ac trans]
+14.4 +8.5 68 +14 +14 1009.9 1002.7
03 20.06 Ю 4 50 км 9/4 600 м
[Cb calv Ci sp]
+15.8 +10.9 73 +15 +17 1010.8 1003.6 +13.4 0.0
06 20.06 З 5 50 км 8/3 600 м
[Cb calv Ci sp]
+21.0 +12.0 56 +23 +28 комфорт 1011.0 1003.9
09 20.06 ЮЗ 3 50 км 8/6 600 м
[Cb calv Ci sp]
+23.4 +12.5 50 +26 +31 жарко 1010.6 1003.5
12 20.06 ЮЗ 4 50 км 6/5 600 м
[Cb calv Ci sp]
+25.0 +9.7 38 +26 +28 жарко 1009.4 1002.4
15 20.06 ЮЗ 3
{10}
50 км 8/3 600 м
[Cb calv Ci sp]
+22.8 +8.8 41 +24 +24 комфорт 1008.5 1001.5 +25.4
18 20.06 Ю 3 20 км 10/10 600 м
[Sc]
+17.4 +12.2 72 +17 +17 1008.3 1001.1

 

Местоположение метеостанции Ялуторовск (Тюменская область, Россия): широта 56.68 долгота 66.35 высота над уровнем моря 61 м.

В архиве по умолчанию представлена погода в Ялуторовске за последнюю неделю. Архивные данные за месяц целиком и за предыдущие месяцы, начиная с января 2011 года, Вы можете получить, выбрав интересующий диапазон дат из раскрывающегося списка и нажав кнопку "Ввод!".


*Определитесь, кто Вы:
робот инопланетянин человек

Внимание! Время в таблицах - всемирное. Для получения местного времени необходимо прибавить поправку, которая равна 5 ч.

Смотрите также архив погоды в соседних городах и на ближайших метеорологических станциях:

Погода в Исетском (Тюменская область, Россия) (67 км)
Погода в Тюмени (Тюменская область, Россия) (74 км)
Погода в Памятном (Курганская область, Россия) (84 км)
Погода в Ярково (Тюменская область, Россия) (93 км)
Погода в Шатрово (Курганская область, Россия) (106 км)
Погода в Нижней Тавде (Тюменская область, Россия) (111 км)
Погода в Тугулыме (Свердловская область, Россия) (111 км)
Погода в Голышманово (Тюменская область, Россия) (130 км)
Погода в Аромашево (Тюменская область, Россия) (141 км)
Погода в Кургане (Курганская область, Россия) (149 км)

Пояснения к столбцам:

Ветер - указаны скорость ветра в м/с - средняя за 10 мин, порывы в срок и между сроками (в фигурных скобках) и направление, откуда дует ветер: С - северный, СВ - северо-восточный, В - восточный, ЮВ - юго-восточный, Ю - южный, ЮЗ - юго-западный, З - западный, СЗ - северо-западный.
Видимость - горизонтальная дальность видимости в метрах или километрах. При видимости от 1 до 10 км при отсутствии осадков обычно наблюдается дымка, при ухудшении видимости до 1 км и менее - туман. В сухую погоду видимость может ухудшаться дымом, пылью или мглою.
Явления - указаны атмосферные явления, наблюдавшиеся в срок или в последний час перед сроком; фигурными скобками обозначены явления, наблюдавшиеся между сроками (за 1-3 часа до срока); квадратными скобками обозначены град или гололедные отложения с указанием их диаметра в мм.
Облачность - указаны через наклонную черту общая и нижняя облачность в баллах и высота нижней границы облаков в метрах; квадратными скобками обозначены формы облаков: Ci - перистые, Cs - перисто-слоистые, Cc - перисто-кучевые, Ac - высококучевые, As - высокослоистые, Sc - слоисто-кучевые, Ns - слоисто-дождевые, Cu - кучевые, Cb - кучево-дождевые. Подробнее классификацию облаков см. в Атласе облаков (PDF).
T - Температура воздуха - температура, измеренная на высоте 2 м над землей.
Td - Температура точки росы - температура, при понижении до которой содержащийся в воздухе водяной пар достигнет насыщения.
f - Относительная влажность воздуха - влажноcть воздуха, измеренная на высоте 2 м над землей.
Te - Эффективная температура - температура, которую ощущает одетый по сезону человек в тени. Характеристика душности погоды. При расчете учитывается влияние влажности воздуха и скорости ветра на теплоощущения человека.
Tes - Эффективная температура на солнце - температура, которую ощущает человек, с поправкой на солнечный нагрев. Характеристика знойности погоды. Зависит от высоты солнца над горизонтом, облачности и скорости ветра. Ночью, в пасмурную погоду, а также при ветре 12 м/с и более поправка равна нулю.
P - Атмосферное давление - приведенное к уровню моря атмосферное давление.
Po - Атмосферное давление - измеренное на уровне метеостанции атмосферное давление.
Tmin - Минимальная температура - минимум температуры воздуха на высоте 2 м над землей.
Tmax - Максимальная температура - максимум температуры воздуха на высоте 2 м над землей.
R - Количество осадков - Количество выпавших осадков за период времени, мм. При наведении курсора мыши на число - период времени, за который выпало указанное количество осадков.
R24 - Количество осадков - Количество выпавших осадков за 24 часа, мм.
S - Снежный покров - Высота снежного покрова, см. При наведении курсора мыши на число - состояние снежного покрова и степень покрытия местности в баллах.